Location: Ferchesar
(52.6477°N, 12.4298°E)
Time: 17:35:14
(UTC+01:00)

Explorer 7 - Pass Details

Date: 11 December 2021
Orbit: 483 x 674 km, 50.3° (Epoch: 23 January)

Event Time Altitude Azimuth Distance (km) Brightness Sun altitude
Rises 05:01:49 0° 250° (WSW) 2,880 - -27.3°
Reaches altitude 10° 05:04:13 10° 247° (WSW) 1,944 - -27.0°
Maximum altitude 05:08:34 57° 169° (S) 681 - -26.3°
Exits shadow 05:09:11 51° 133° (SE) 723 7.6 -26.2°
Drops below altitude 10° 05:12:39 10° 91° (E) 1,827 10.5 -25.7°
Sets 05:14:51 0° 87° (E) 2,689 11.7 -25.4°
